Total_Precipitation_Accumulation
0.49 0.39 0.47 0.53 0.47 0.48 0.74 0.78 0.69 0.42 0.36 0.38 0.37 0.36 0.37 0.36 0.36 0.34 0.33 0.36 0.40 0.46 0.51 0.56 0.64 0.73 0.78 0.82 0.84 0.87 0.98 1.04 1.09 1.13 1.20 1.23 1.20 1.31 1.47 1.42 1.27 1.19 1.19 1.25
0.43 0.30 0.36 0.42 0.33 0.37 0.43 0.44 0.42 0.32 0.33 0.35 0.33 0.29 0.30 0.34 0.37 0.38 0.39 0.40 0.41 0.47 0.50 0.57 0.65 0.75 0.87 0.87 0.86 0.81 0.88 0.97 1.03 1.13 1.27 1.28 1.22 1.25 1.37 1.44 1.36 1.25 1.19 1.20
0.67 0.33 0.57 0.63 0.43 0.42 0.44 0.43 0.46 0.51 0.44 0.34 0.33 0.33 0.38 0.42 0.45 0.45 0.45 0.45 0.45 0.49 0.54 0.62 0.67 0.76 0.88 0.90 0.89 0.86 0.86 0.91 0.97 1.03 1.20 1.27 1.25 1.31 1.36 1.42 1.48 1.46 1.30 1.19
1.13 0.80 1.09 0.56 0.30 0.33 0.39 0.45 0.49 0.47 0.39 0.37 0.40 0.37 0.37 0.43 0.51 0.51 0.48 0.47 0.47 0.52 0.57 0.60 0.66 0.71 0.79 0.84 0.86 0.90 0.91 0.93 0.98 0.99 1.04 1.19 1.30 1.33 1.35 1.38 1.41 1.47 1.42 1.31
1.69 1.20 0.66 0.31 0.25 0.33 0.45 0.51 0.43 0.39 0.36 0.33 0.31 0.28 0.29 0.31 0.39 0.49 0.50 0.50 0.52 0.56 0.59 0.61 0.62 0.66 0.76 0.82 0.83 0.92 0.99 1.00 0.97 0.94 0.97 1.08 1.19 1.31 1.35 1.37 1.33 1.33 1.33 1.33
1.92 1.47 0.71 0.41 0.25 0.23 0.38 0.63 0.38 0.35 0.38 0.34 0.34 0.43 0.35 0.29 0.36 0.46 0.45 0.48 0.53 0.55 0.53 0.58 0.61 0.64 0.74 0.82 0.80 0.90 0.97 1.02 0.93 0.84 0.83 0.86 0.98 1.18 1.30 1.32 1.27 1.26 1.27 1.28
1.62 1.32 0.59 0.38 0.26 0.28 0.60 0.69 0.37 0.35 0.39 0.39 0.45 0.51 0.39 0.35 0.39 0.44 0.42 0.45 0.47 0.49 0.50 0.59 0.65 0.64 0.71 0.79 0.85 0.89 0.96 1.02 0.93 0.83 0.82 0.83 0.91 1.09 1.23 1.32 1.31 1.24 1.19 1.20
1.18 1.37 0.75 0.37 0.38 0.61 0.70 0.40 0.32 0.30 0.31 0.33 0.32 0.29 0.28 0.31 0.37 0.40 0.37 0.37 0.39 0.43 0.48 0.56 0.62 0.66 0.72 0.79 0.85 0.93 0.98 0.96 0.96 0.92 0.87 0.89 0.93 1.06 1.21 1.30 1.37 1.32 1.21 1.17
0.87 0.76 0.50 0.40 0.50 0.53 0.45 0.36 0.29 0.30 0.28 0.27 0.26 0.26 0.29 0.33 0.35 0.38 0.36 0.36 0.37 0.41 0.45 0.52 0.59 0.66 0.77 0.83 0.83 0.90 0.95 0.97 0.97 0.97 0.94 0.95 0.99 1.08 1.20 1.28 1.33 1.32 1.23 1.16
0.62 0.41 0.33 0.35 0.38 0.38 0.33 0.31 0.27 0.27 0.26 0.24 0.24 0.24 0.28 0.32 0.32 0.34 0.35 0.36 0.37 0.40 0.43 0.51 0.58 0.62 0.73 0.81 0.79 0.79 0.85 0.93 0.94 0.97 1.01 1.04 1.07 1.10 1.18 1.28 1.35 1.26 1.19 1.11
0.55 0.34 0.30 0.28 0.29 0.30 0.25 0.23 0.22 0.23 0.24 0.24 0.24 0.24 0.27 0.31 0.32 0.34 0.40 0.40 0.41 0.43 0.45 0.53 0.60 0.66 0.73 0.75 0.74 0.75 0.78 0.89 0.97 1.01 1.06 1.09 1.11 1.15 1.22 1.23 1.37 1.35 1.21 1.13
0.54 0.35 0.39 0.33 0.27 0.26 0.26 0.25 0.25 0.25 0.25 0.22 0.25 0.29 0.28 0.30 0.32 0.36 0.41 0.45 0.44 0.46 0.50 0.55 0.62 0.73 0.76 0.73 0.71 0.74 0.79 0.85 0.95 1.03 1.04 1.04 1.03 1.09 1.26 1.28 1.32 1.28 1.22 1.19
0.36 0.30 0.30 0.28 0.24 0.25 0.25 0.24 0.24 0.25 0.27 0.25 0.24 0.27 0.31 0.32 0.32 0.35 0.39 0.44 0.51 0.54 0.58 0.60 0.64 0.73 0.77 0.73 0.70 0.72 0.79 0.84 0.91 1.00 0.99 0.95 0.92 0.93 1.05 1.22 1.31 1.29 1.26 1.21
0.21 0.25 0.26 0.21 0.21 0.20 0.20 0.20 0.20 0.21 0.22 0.23 0.23 0.24 0.28 0.30 0.29 0.32 0.38 0.45 0.53 0.56 0.58 0.62 0.66 0.73 0.77 0.72 0.70 0.71 0.75 0.86 0.91 0.96 0.98 0.95 0.93 0.92 0.94 1.03 1.16 1.23 1.27 1.23
0.13 0.18 0.21 0.17 0.16 0.16 0.15 0.16 0.17 0.17 0.17 0.17 0.19 0.22 0.26 0.30 0.32 0.35 0.40 0.47 0.53 0.55 0.57 0.63 0.70 0.79 0.79 0.73 0.70 0.72 0.78 0.83 0.84 0.90 0.95 0.97 0.96 0.98 1.00 1.02 1.06 1.11 1.16 1.30
0.14 0.14 0.16 0.16 0.17 0.17 0.17 0.17 0.17 0.16 0.17 0.18 0.19 0.20 0.24 0.30 0.36 0.42 0.47 0.50 0.56 0.60 0.63 0.67 0.73 0.81 0.79 0.72 0.70 0.72 0.81 0.92 0.90 0.91 0.96 0.98 0.99 1.04 1.10 1.12 1.13 1.10 1.11 1.22
0.22 0.20 0.18 0.18 0.17 0.17 0.18 0.19 0.18 0.17 0.18 0.18 0.20 0.21 0.22 0.27 0.33 0.39 0.45 0.53 0.60 0.64 0.66 0.68 0.74 0.78 0.78 0.75 0.73 0.72 0.77 0.85 0.94 0.92 0.91 0.95 0.99 1.04 1.09 1.16 1.17 1.10 1.04 1.14
0.25 0.23 0.21 0.21 0.19 0.18 0.17 0.17 0.17 0.19 0.21 0.22 0.22 0.24 0.26 0.30 0.35 0.42 0.50 0.54 0.57 0.61 0.67 0.69 0.75 0.77 0.78 0.81 0.78 0.75 0.78 0.82 0.85 0.88 0.91 0.97 1.03 1.04 1.10 1.16 1.14 1.11 1.09 1.16
0.19 0.19 0.18 0.18 0.19 0.18 0.18 0.18 0.20 0.21 0.23 0.24 0.25 0.27 0.29 0.33 0.39 0.47 0.53 0.54 0.54 0.58 0.65 0.69 0.77 0.74 0.75 0.84 0.85 0.81 0.84 0.88 0.90 0.88 0.89 1.02 1.08 1.06 1.09 1.13 1.15 1.14 1.14 1.17
0.19 0.18 0.16 0.16 0.16 0.17 0.19 0.21 0.21 0.21 0.22 0.24 0.27 0.28 0.30 0.35 0.41 0.47 0.52 0.53 0.57 0.64 0.65 0.69 0.70 0.69 0.72 0.82 0.89 0.84 0.88 0.93 0.94 0.91 0.90 0.96 1.02 1.06 1.08 1.11 1.14 1.17 1.17 1.19
0.20 0.17 0.16 0.16 0.16 0.17 0.20 0.21 0.21 0.21 0.22 0.25 0.30 0.33 0.37 0.41 0.45 0.47 0.49 0.49 0.51 0.56 0.58 0.63 0.64 0.67 0.71 0.85 0.93 0.89 0.90 0.91 0.93 0.94 0.94 0.96 1.01 1.05 1.07 1.09 1.11 1.14 1.17 1.19
0.21 0.20 0.20 0.18 0.18 0.20 0.22 0.23 0.24 0.25 0.25 0.27 0.31 0.36 0.40 0.43 0.43 0.45 0.45 0.49 0.51 0.57 0.56 0.54 0.57 0.67 0.76 0.84 0.85 0.86 0.86 0.87 0.91 0.95 0.98 0.99 1.05 1.10 1.09 1.08 1.14 1.14 1.15 1.18
0.22 0.22 0.22 0.23 0.24 0.25 0.24 0.23 0.26 0.29 0.30 0.32 0.34 0.38 0.42 0.43 0.44 0.45 0.47 0.48 0.52 0.60 0.58 0.58 0.65 0.74 0.82 0.79 0.78 0.80 0.82 0.86 0.90 0.95 1.01 1.04 1.07 1.11 1.13 1.14 1.15 1.16 1.20 1.22
0.25 0.24 0.25 0.26 0.27 0.27 0.26 0.26 0.28 0.32 0.35 0.37 0.38 0.41 0.44 0.45 0.44 0.45 0.50 0.56 0.61 0.65 0.62 0.68 0.76 0.80 0.84 0.78 0.75 0.80 0.86 0.90 0.94 1.00 1.05 1.08 1.11 1.14 1.14 1.14 1.16 1.15 1.17 1.19
0.29 0.28 0.28 0.28 0.29 0.32 0.33 0.31 0.31 0.33 0.34 0.38 0.40 0.42 0.46 0.50 0.54 0.54 0.55 0.60 0.66 0.70 0.70 0.75 0.81 0.83 0.80 0.79 0.80 0.84 0.92 0.98 1.05 1.16 1.19 1.15 1.14 1.15 1.12 1.10 1.14 1.17 1.17 1.15
0.34 0.34 0.35 0.35 0.36 0.37 0.38 0.37 0.36 0.35 0.34 0.38 0.42 0.46 0.51 0.55 0.57 0.59 0.60 0.63 0.67 0.72 0.73 0.74 0.78 0.82 0.83 0.87 0.91 0.94 1.02 1.07 1.12 1.12 1.09 1.09 1.10 1.09 1.06 1.05 1.08 1.13 1.14 1.12
0.39 0.38 0.39 0.40 0.42 0.42 0.43 0.44 0.46 0.46 0.45 0.48 0.52 0.53 0.55 0.59 0.63 0.66 0.66 0.68 0.70 0.73 0.76 0.79 0.82 0.87 0.92 0.96 1.00 1.04 1.07 1.09 1.10 1.10 1.07 1.08 1.09 1.07 1.04 1.05 1.07 1.09 1.09 1.06